Date,TemperatureHighF,TemperatureAvgF,TemperatureLowF,DewpointHighF,DewpointAvgF,DewpointLowF,HumidityHigh,HumidityAvg,HumidityLow,PressureMaxIn,PressureMinIn,WindSpeedMaxMPH,WindSpeedAvgMPH,GustSpeedMaxMPH,PrecipitationSumIn
2013-1-1,15.0,3.7,-10.0,2.0,-6.2,-16.0,78,64,46,0.00,40.00,10,5,16,0.00
2013-1-2,26.0,18.1,13.0,10.0,7.6,4.0,78,64,45,0.00,40.00,7,5,12,0.00
2013-1-3,24.0,18.2,10.0,18.0,12.1,2.0,83,76,70,0.00,40.00,11,8,18,0.00
2013-1-4,31.0,17.3,5.0,15.0,9.1,1.0,85,72,50,0.00,40.00,12,6,20,0.00
2013-1-5,35.0,21.2,6.0,26.0,14.6,1.0,89,76,59,0.00,40.00,11,5,19,0.00
2013-1-6,30.0,21.5,10.0,19.0,14.8,6.0,88,76,64,0.00,40.00,13,8,21,0.00
2013-1-7,40.0,26.1,11.0,23.0,16.6,6.0,87,69,46,0.00,40.00,16,8,31,0.00
2013-1-8,40.0,26.6,11.0,29.0,20.2,8.0,92,77,57,0.00,40.00,14,4,24,0.00
2013-1-9,40.0,33.2,20.0,29.0,22.7,17.0,87,66,44,0.00,40.00,17,11,35,0.00
2013-1-10,39.0,29.2,16.0,34.0,22.4,14.0,98,78,47,0.00,40.00,9,5,18,0.14
2013-1-11,43.0,38.0,34.0,43.0,37.9,34.0,100,100,97,0.00,40.00,8,4,13,0.19
2013-1-12,46.0,30.2,17.0,44.0,22.0,7.0,100,72,57,0.00,40.00,19,11,40,0.03
2013-1-13,17.0,11.8,8.0,8.0,2.3,-1.0,74,65,58,0.00,40.00,13,9,24,0.00
2013-1-14,22.0,10.3,0.0,8.0,2.0,-5.0,82,69,51,0.00,40.00,15,5,25,0.00
2013-1-15,31.0,16.7,1.0,12.0,5.8,-4.0,84,64,40,0.00,40.00,14,6,23,0.00
2013-1-16,32.0,26.3,19.0,30.0,17.8,4.0,92,70,49,0.00,40.00,14,9,30,0.00
2013-1-17,22.0,14.9,7.0,7.0,1.4,-4.0,83,56,38,0.00,40.00,12,7,25,0.00
2013-1-18,46.0,28.3,5.0,31.0,19.3,1.0,85,70,50,0.00,40.00,17,8,29,0.03
2013-1-19,47.0,34.1,10.0,31.0,24.3,-6.0,94,69,33,0.00,40.00,29,11,50,0.01
2013-1-20,13.0,7.2,3.0,-3.0,-6.7,-9.0,64,53,35,0.00,40.00,21,10,37,0.00
2013-1-21,5.0,-2.5,-9.0,-2.0,-14.0,-20.0,76,58,39,0.00,40.00,16,10,29,0.00
2013-1-22,4.0,-4.7,-13.0,-10.0,-15.7,-21.0,71,59,41,0.00,40.00,10,5,17,0.00
2013-1-23,16.0,7.6,-2.0,9.0,-1.0,-14.0,77,68,55,0.00,40.00,19,9,30,0.00
2013-1-24,11.0,2.5,-7.0,-2.0,-9.5,-15.0,69,57,45,0.00,40.00,9,4,15,0.00
2013-1-25,22.0,16.3,11.0,12.0,8.0,0.0,85,69,58,0.00,40.00,12,9,23,0.02
2013-1-26,26.0,14.3,0.0,9.0,2.6,-5.0,79,61,42,0.00,40.00,8,5,15,0.01
2013-1-27,30.0,26.9,22.0,30.0,20.0,10.0,99,76,58,0.00,40.00,10,6,18,0.20
2013-1-28,35.0,32.2,30.0,33.0,31.3,30.0,100,96,87,0.00,40.00,7,4,14,0.01
2013-1-29,43.0,36.4,33.0,43.0,36.1,32.0,100,99,95,0.00,40.00,9,6,16,0.23
2013-1-30,33.0,24.5,13.0,33.0,21.9,6.0,99,89,73,0.00,40.00,17,12,29,0.26
2013-1-31,9.0,5.2,-1.0,0.0,-4.0,-10.0,74,65,60,0.00,40.00,15,12,27,0.01
2013-2-1,6.0,-1.6,-12.0,-2.0,-12.1,-19.0,78,61,44,0.00,40.00,9,6,19,0.02
2013-2-2,16.0,6.7,0.0,-1.0,-2.7,-5.0,79,66,42,0.00,40.00,6,3,11,0.04
2013-2-3,19.0,11.1,2.0,6.0,2.0,-2.0,83,67,48,0.00,40.00,14,7,26,0.01
2013-2-4,24.0,12.5,3.0,8.0,1.5,-6.0,85,64,31,0.00,40.00,8,4,12,0.01
2013-2-5,27.0,17.3,-1.0,22.0,11.5,-6.0,88,78,69,0.00,40.00,14,7,22,0.01
2013-2-6,28.0,13.3,-8.0,23.0,7.7,-15.0,90,79,62,0.00,40.00,7,3,16,0.01
2013-2-7,31.0,27.8,25.0,30.0,26.0,21.0,96,93,86,0.00,40.00,8,5,16,0.16
2013-2-8,32.0,19.8,6.0,21.0,11.4,3.0,88,71,42,0.00,40.00,8,4,16,0.06
2013-2-9,28.0,19.4,5.0,22.0,15.2,0.0,90,84,76,0.00,40.00,8,6,16,0.00
2013-2-10,39.0,32.5,26.0,39.0,31.1,23.0,100,94,85,0.00,40.00,9,6,20,0.34
2013-2-11,36.0,30.0,25.0,35.0,26.1,17.0,100,86,70,0.00,40.00,17,13,34,0.07
2013-2-12,34.0,23.9,19.0,19.0,15.6,11.0,90,71,54,0.00,40.00,12,8,20,0.01
2013-2-13,40.0,27.8,13.0,26.0,20.6,10.0,94,76,52,0.00,40.00,9,5,15,0.02
2013-2-14,35.0,31.1,21.0,33.0,25.5,6.0,100,81,58,0.00,40.00,18,11,30,0.13
2013-2-15,23.0,14.7,8.0,6.0,2.0,-2.0,70,57,42,0.00,40.00,12,8,24,0.00
2013-2-16,21.0,9.3,-6.0,1.0,-3.0,-14.0,75,59,36,0.00,40.00,12,5,19,0.00
2013-2-17,28.0,9.5,-15.0,14.0,-3.7,-23.0,74,57,35,0.00,40.00,8,4,17,0.00
2013-2-18,44.0,31.4,24.0,32.0,23.5,15.0,92,73,55,0.00,40.00,18,8,32,0.00
2013-2-19,20.0,11.0,5.0,16.0,0.7,-9.0,86,64,46,0.00,40.00,22,16,35,0.00
2013-2-20,26.0,11.8,0.0,6.0,-0.9,-9.0,72,57,40,0.00,40.00,12,8,21,0.00
2013-2-21,23.0,14.0,-1.0,20.0,7.5,-5.0,91,75,59,0.00,40.00,12,6,25,0.00
2013-2-22,31.0,25.4,22.0,27.0,22.3,19.0,93,88,81,0.00,40.00,11,6,22,0.16
2013-2-23,30.0,25.7,23.0,21.0,19.4,18.0,88,77,60,0.00,40.00,11,8,16,0.01
2013-2-24,42.0,25.5,9.0,23.0,17.1,5.0,93,73,43,0.00,40.00,6,3,11,0.00
2013-2-25,40.0,27.8,16.0,24.0,20.0,14.0,92,74,49,0.00,40.00,5,2,10,0.00
2013-2-26,38.0,28.7,21.0,25.0,22.5,19.0,95,79,60,0.00,40.00,14,8,31,0.00
2013-2-27,35.0,31.3,28.0,30.0,26.5,22.0,94,82,72,0.00,40.00,13,9,22,0.05
2013-2-28,33.0,30.6,26.0,27.0,21.8,15.0,86,70,57,0.00,40.00,11,9,20,0.01
2013-3-1,34.0,25.4,11.0,17.0,12.8,5.0,82,60,43,0.00,40.00,9,6,19,0.00
2013-3-2,32.0,17.3,4.0,9.0,4.2,-1.0,82,59,32,0.00,40.00,11,4,16,0.00
2013-3-3,38.0,17.8,-3.0,9.0,0.7,-8.0,80,53,15,0.00,40.00,5,2,11,0.00
2013-3-4,31.0,22.5,13.0,19.0,10.9,3.0,74,61,50,0.00,40.00,10,6,19,0.00
2013-3-5,29.0,25.9,23.0,26.0,21.8,17.0,93,85,69,0.00,40.00,10,7,17,0.26
2013-3-6,36.0,26.3,13.0,22.0,18.8,9.0,86,74,53,0.00,40.00,13,8,20,0.01
2013-3-7,42.0,23.6,0.0,18.0,11.5,-6.0,87,63,36,0.00,40.00,6,3,11,0.00
2013-3-8,43.0,30.1,17.0,23.0,19.7,14.0,91,68,42,0.00,40.00,9,6,18,0.00
2013-3-9,40.0,34.7,30.0,37.0,29.7,22.0,100,83,69,0.00,40.00,9,6,18,0.36
2013-3-10,38.0,35.5,32.0,37.0,34.9,32.0,100,98,91,0.00,40.00,11,5,21,0.61
2013-3-11,35.0,30.7,26.0,32.0,28.9,22.0,100,93,85,0.00,40.00,14,9,22,0.42
2013-3-12,28.0,25.5,21.0,24.0,19.7,14.0,93,79,68,0.00,40.00,13,9,23,0.00
2013-3-13,32.0,23.1,15.0,15.0,9.8,8.0,82,59,37,0.00,40.00,14,10,22,0.00
2013-3-14,38.0,22.9,9.0,26.0,16.8,5.0,90,78,62,0.00,40.00,7,4,11,0.00
2013-3-15,37.0,29.9,23.0,34.0,28.0,21.0,98,92,83,0.00,40.00,8,3,13,0.17
2013-3-16,30.0,24.2,18.0,27.0,15.6,8.0,93,70,54,0.00,40.00,12,7,20,0.19
2013-3-17,32.0,20.7,6.0,13.0,7.3,0.0,77,57,37,0.00,40.00,9,7,20,0.00
2013-3-18,33.0,22.7,14.0,28.0,18.1,8.0,90,83,71,0.00,40.00,18,7,28,0.26
2013-3-19,28.0,18.4,11.0,8.0,4.9,0.0,75,57,36,0.00,40.00,20,15,33,0.01
2013-3-20,22.0,13.0,5.0,1.0,-2.9,-8.0,62,48,38,0.00,40.00,16,12,26,0.00
2013-3-21,32.0,14.9,-1.0,7.0,1.0,-7.0,78,56,34,0.00,40.00,11,6,19,0.00
2013-3-22,42.0,23.2,3.0,12.0,6.9,-2.0,82,54,27,0.00,40.00,5,3,11,0.00
2013-3-23,47.0,28.2,13.0,18.0,13.2,8.0,82,57,27,0.00,40.00,5,3,11,0.00
2013-3-24,34.0,30.5,27.0,23.0,20.6,18.0,76,67,57,0.00,40.00,10,6,22,0.00
2013-3-25,37.0,30.5,21.0,21.0,18.9,15.0,83,62,52,0.00,40.00,15,10,23,0.00
2013-3-26,42.0,33.6,27.0,24.0,19.2,16.0,71,56,40,0.00,40.00,11,7,17,0.00
2013-3-27,47.0,36.5,30.0,22.0,19.1,15.0,68,52,29,0.00,40.00,8,5,19,0.00
2013-3-28,51.0,42.2,28.0,20.0,16.6,15.0,70,38,24,0.00,40.00,7,4,15,0.00
2013-3-29,56.0,37.0,17.0,21.0,17.3,14.0,86,52,20,0.00,40.00,7,2,13,0.00
2013-3-30,49.0,41.5,36.0,43.0,30.6,19.0,100,67,47,0.00,40.00,15,7,26,0.25
2013-3-31,40.0,36.5,30.0,38.0,28.7,13.0,100,76,35,0.00,40.00,17,10,31,0.01
2013-4-1,34.0,27.6,21.0,15.0,10.0,8.0,62,48,33,0.00,40.00,17,11,29,0.00
2013-4-2,39.0,29.0,19.0,12.0,10.3,5.0,70,47,27,0.00,40.00,14,8,30,0.00
2013-4-3,46.0,32.6,14.0,15.0,10.0,2.0,85,45,16,0.00,40.00,10,4,18,0.00
2013-4-4,53.0,42.1,31.0,32.0,22.5,15.0,64,46,37,0.00,40.00,14,9,25,0.00
2013-4-5,48.0,36.9,24.0,32.0,19.8,15.0,96,54,26,0.00,40.00,8,5,17,0.05
2013-4-6,56.0,42.2,31.0,49.0,33.4,24.0,97,73,44,0.00,40.00,18,9,28,0.05
2013-4-7,50.0,40.7,35.0,36.0,32.1,30.0,87,72,50,0.00,40.00,16,8,28,0.01
2013-4-8,45.0,39.3,36.0,38.0,34.5,31.0,94,83,75,0.00,40.00,8,5,16,0.01
2013-4-9,40.0,37.0,35.0,38.0,35.2,29.0,100,93,79,0.00,40.00,10,6,27,1.10
2013-4-10,35.0,33.1,31.0,33.0,30.4,25.0,96,90,69,0.00,40.00,10,7,27,1.14
2013-4-11,35.0,33.4,32.0,33.0,29.8,25.0,98,87,67,0.00,40.00,14,10,37,0.25
2013-4-12,38.0,32.9,30.0,32.0,30.4,28.0,99,91,76,0.00,40.00,10,6,16,0.13
2013-4-13,36.0,32.9,29.0,31.0,25.9,23.0,95,76,59,0.00,40.00,13,8,23,0.01
2013-4-14,39.0,33.1,27.0,36.0,29.4,23.0,94,86,69,0.00,40.00,12,7,26,0.46
2013-4-15,53.0,42.7,35.0,44.0,32.4,24.0,100,72,35,0.00,40.00,21,9,37,0.36
2013-4-16,51.0,38.8,32.0,28.0,26.8,25.0,80,63,37,0.00,40.00,10,6,19,0.00
2013-4-17,41.0,36.4,30.0,38.0,31.8,25.0,99,84,62,0.00,40.00,12,7,26,0.53
2013-4-18,42.0,39.4,37.0,42.0,39.2,36.0,100,99,94,0.00,40.00,12,6,21,0.52
2013-4-19,37.0,33.2,29.0,36.0,25.5,17.0,98,75,46,0.00,40.00,21,15,38,0.09
2013-4-20,46.0,33.6,19.0,20.0,12.2,4.0,89,47,18,0.00,40.00,13,7,23,0.00
2013-4-21,51.0,38.1,31.0,36.0,27.7,13.0,98,68,44,0.00,40.00,10,6,24,0.15
2013-4-22,50.0,46.9,45.0,48.0,43.2,36.0,100,87,63,0.00,40.00,10,5,22,0.14
2013-4-23,48.0,39.6,32.0,48.0,33.0,24.0,100,79,58,0.00,40.00,17,10,27,0.02
2013-4-24,52.0,39.5,26.0,35.0,22.4,17.0,91,56,29,0.00,40.00,14,8,33,0.01
2013-4-25,50.0,41.4,34.0,36.0,29.9,24.0,96,67,37,0.00,40.00,14,8,22,0.03
2013-4-26,71.0,55.2,37.0,44.0,33.0,25.0,66,45,28,0.00,40.00,17,10,31,0.01
2013-4-27,71.0,59.5,48.0,47.0,44.5,41.0,92,60,38,0.00,40.00,10,7,19,0.00
2013-4-28,75.0,58.5,38.0,46.0,40.2,37.0,96,57,26,0.00,40.00,8,4,18,0.00
2013-4-29,74.0,62.8,55.0,55.0,49.2,41.0,88,62,47,0.00,40.00,13,6,22,0.01
2013-4-30,85.0,76.5,60.0,55.0,52.5,41.0,85,46,32,0.00,40.00,19,13,40,0.01
2013-5-1,68.0,58.1,46.0,48.0,42.8,34.0,88,59,38,0.00,40.00,18,10,33,0.01
2013-5-2,43.0,38.4,34.0,36.0,32.9,30.0,92,81,69,0.00,40.00,13,9,25,0.04
2013-5-3,42.0,36.6,32.0,42.0,35.0,29.0,99,94,85,0.00,40.00,11,6,17,0.78
2013-5-4,72.0,55.4,42.0,53.0,46.9,42.0,99,76,42,0.00,40.00,7,4,15,0.02
2013-5-5,77.0,58.1,43.0,48.0,44.6,40.0,97,66,28,0.00,40.00,6,3,14,0.00
2013-5-6,78.0,60.9,41.0,46.0,41.0,37.0,97,56,23,0.00,40.00,8,4,15,0.00
2013-5-7,82.0,64.3,45.0,46.0,37.8,28.0,93,48,14,0.00,40.00,9,4,16,0.00
2013-5-8,81.0,66.0,44.0,47.0,40.8,37.0,85,45,21,0.00,40.00,6,2,14,0.00
2013-5-9,63.0,57.7,50.0,56.0,52.4,47.0,97,83,58,0.00,40.00,11,6,23,0.75
2013-5-10,62.0,50.1,41.0,47.0,42.0,-99.9,96,79,52,0.00,40.00,11,6,26,0.64
2013-5-11,52.0,47.3,41.0,47.0,34.0,22.0,97,63,33,0.00,40.00,25,13,47,0.03
2013-5-12,56.0,44.3,32.0,27.0,20.8,13.0,73,43,20,0.00,40.00,17,11,33,0.01
2013-5-13,66.0,50.2,27.0,33.0,25.1,21.0,81,42,20,0.00,40.00,9,5,22,0.00
2013-5-14,90.0,72.5,53.0,55.0,45.2,33.0,67,40,23,0.00,40.00,14,7,29,0.00
2013-5-15,77.0,70.1,61.0,52.0,40.6,35.0,56,36,23,0.00,40.00,15,9,30,0.00
2013-5-16,86.0,63.6,48.0,50.0,27.1,-99.9,89,49,23,0.00,40.00,9,5,26,0.00
2013-5-17,62.0,54.5,49.0,54.0,40.8,-99.9,95,74,38,0.00,40.00,11,6,19,0.43
2013-5-18,80.0,65.0,51.0,63.0,55.7,49.0,94,74,53,0.00,40.00,7,5,16,0.02
2013-5-19,87.0,73.0,62.0,64.0,60.4,55.0,91,68,42,0.00,40.00,14,7,27,0.00
2013-5-20,83.0,71.6,61.0,62.0,59.0,55.0,98,69,41,0.00,40.00,17,8,31,0.48
2013-5-21,74.0,66.4,59.0,64.0,58.8,55.0,99,78,55,0.00,40.00,14,6,22,0.17
2013-5-22,64.0,58.6,55.0,59.0,56.7,51.0,98,94,83,0.00,40.00,9,4,17,1.38
2013-5-23,65.0,54.8,45.0,51.0,40.6,31.0,97,64,29,0.00,40.00,11,8,28,0.59
2013-5-24,67.0,53.6,34.0,41.0,33.3,29.0,91,51,24,0.00,40.00,6,4,14,0.01
2013-5-25,64.0,55.8,50.0,43.0,39.7,36.0,77,56,38,0.00,40.00,8,4,14,0.00
2013-5-26,66.0,56.3,46.0,48.0,40.3,36.0,72,57,36,0.00,40.00,8,5,17,0.00
2013-5-27,57.0,54.6,51.0,53.0,47.0,38.0,97,77,53,0.00,40.00,11,6,22,0.46
2013-5-28,62.0,55.8,51.0,59.0,54.4,50.0,99,95,89,0.00,40.00,7,4,15,0.21
2013-5-29,86.0,69.8,58.0,65.0,61.5,58.0,100,79,43,0.00,40.00,12,5,20,0.69
2013-5-30,81.0,70.7,63.0,71.0,66.2,61.0,99,86,62,0.00,40.00,14,7,24,1.50
2013-5-31,81.0,70.7,62.0,63.0,59.8,56.0,90,71,42,0.00,40.00,15,9,34,0.01
2013-6-1,77.0,66.3,54.0,62.0,54.2,50.0,89,67,41,0.00,40.00,16,7,28,0.02
2013-6-2,64.0,53.9,45.0,51.0,40.9,37.0,88,63,39,0.00,40.00,17,10,29,0.02
2013-6-3,73.0,58.2,38.0,48.0,41.6,36.0,95,60,33,0.00,40.00,8,4,18,0.00
2013-6-4,57.0,54.8,52.0,55.0,52.1,48.0,97,91,73,0.00,40.00,6,4,14,0.63
2013-6-5,58.0,54.0,51.0,57.0,51.9,49.0,96,92,85,0.00,40.00,6,4,16,0.56
2013-6-6,57.0,53.7,51.0,54.0,51.4,49.0,98,92,84,0.00,40.00,5,4,12,0.29
2013-6-7,71.0,59.0,50.0,54.0,49.6,45.0,97,73,44,0.00,40.00,5,3,11,0.01
2013-6-8,66.0,59.8,52.0,56.0,52.7,50.0,98,79,57,0.00,40.00,8,2,15,0.02
2013-6-9,76.0,63.2,55.0,64.0,56.3,49.0,99,80,53,0.00,40.00,10,5,19,0.72
2013-6-10,81.0,69.2,56.0,63.0,60.7,56.0,100,77,48,0.00,40.00,9,4,17,0.50
2013-6-11,80.0,68.1,53.0,67.0,61.0,52.0,98,80,55,0.00,40.00,8,3,14,0.01
2013-6-12,77.0,68.2,62.0,67.0,63.8,58.0,99,86,66,0.00,40.00,11,4,17,0.05
2013-6-13,80.0,68.7,58.0,59.0,55.5,52.0,98,67,39,0.00,40.00,14,6,25,0.01
2013-6-14,79.0,68.4,53.0,57.0,52.8,48.0,95,60,40,0.00,40.00,6,4,16,0.00
2013-6-15,80.0,68.8,61.0,67.0,62.7,57.0,99,82,62,0.00,40.00,13,6,21,2.09
2013-6-16,84.0,70.7,57.0,64.0,55.2,45.0,99,65,26,0.00,40.00,12,6,20,1.14
2013-6-17,84.0,70.1,59.0,60.0,56.0,48.0,97,64,30,0.00,40.00,15,6,34,0.10
2013-6-18,76.0,65.0,55.0,58.0,49.2,43.0,90,60,35,0.00,40.00,7,5,14,0.10
2013-6-19,81.0,68.4,49.0,56.0,50.7,46.0,91,57,37,0.00,40.00,7,4,15,0.00
2013-6-20,86.0,71.7,60.0,60.0,56.2,53.0,82,61,34,0.00,40.00,12,5,19,0.00
2013-6-22,80.0,74.0,66.0,68.0,66.6,65.0,97,78,65,0.00,40.00,10,6,32,1.21
2013-6-23,86.0,74.8,65.0,71.0,65.9,63.0,98,76,50,0.00,40.00,15,9,28,1.35
2013-6-24,83.0,73.8,67.0,70.0,66.4,65.0,94,78,64,0.00,40.00,12,6,23,0.05
2013-6-25,82.0,72.3,66.0,72.0,67.8,65.0,99,86,70,0.00,40.00,5,3,11,0.40
2013-6-26,87.0,76.7,71.0,72.0,70.2,68.0,99,82,53,0.00,40.00,7,4,15,0.04
2013-6-27,87.0,77.6,68.0,71.0,64.5,56.0,99,69,36,0.00,40.00,15,7,28,0.00
2013-6-28,78.0,69.2,64.0,68.0,60.4,55.0,95,75,59,0.00,40.00,16,8,27,0.12
2013-6-29,72.0,65.6,61.0,64.0,59.9,54.0,98,83,66,0.00,40.00,9,6,18,0.08
2013-6-30,81.0,68.5,54.0,55.0,50.5,44.0,86,56,27,0.00,40.00,8,5,15,0.01
2013-7-1,84.0,68.6,52.0,62.0,52.9,49.0,95,64,31,0.00,40.00,7,3,14,0.03
2013-7-2,80.0,67.7,57.0,61.0,52.6,47.0,95,62,37,0.00,40.00,7,4,14,0.03
2013-7-3,74.0,63.5,49.0,60.0,53.9,46.0,91,72,53,0.00,40.00,6,3,13,0.00
2013-7-4,85.0,71.0,57.0,60.0,57.6,54.0,97,67,36,0.00,40.00,11,5,19,0.00
2013-7-5,87.0,77.0,61.0,63.0,59.4,56.0,90,58,35,0.00,40.00,13,7,23,0.00
2013-7-6,90.0,76.9,65.0,64.0,62.1,60.0,84,63,40,0.00,40.00,10,6,18,0.00
2013-7-7,92.0,79.0,67.0,70.0,66.3,63.0,88,67,39,0.00,40.00,12,6,22,0.00
2013-7-8,93.0,80.2,75.0,71.0,69.9,68.0,84,72,47,0.00,40.00,9,6,16,0.00
2013-7-9,87.0,77.3,71.0,75.0,70.8,67.0,96,81,60,0.00,40.00,15,6,29,0.30
2013-7-10,80.0,72.9,61.0,68.0,56.1,-99.9,85,60,39,0.00,40.00,19,9,30,0.04
2013-7-11,86.0,70.3,54.0,60.0,55.4,52.0,95,65,34,0.00,40.00,6,2,10,0.00
2013-7-12,86.0,73.4,55.0,59.0,56.2,52.0,95,60,32,0.00,40.00,11,5,20,0.00
2013-7-13,85.0,73.4,62.0,64.0,59.4,57.0,85,63,42,0.00,40.00,11,5,20,0.00
2013-7-14,90.0,76.7,64.0,65.0,61.6,58.0,84,62,38,0.00,40.00,9,4,16,0.00
2013-7-15,91.0,79.4,65.0,70.0,67.6,64.0,95,70,49,0.00,40.00,5,2,11,0.00
2013-7-16,93.0,88.0,79.0,73.0,70.8,69.0,77,58,46,0.00,40.00,11,7,18,0.00
2013-7-17,95.0,84.5,73.0,73.0,69.8,65.0,93,65,37,0.00,40.00,12,6,19,0.00
2013-7-18,96.0,85.6,73.0,71.0,69.2,67.0,89,61,41,0.00,40.00,16,9,29,0.00
2013-7-19,93.0,82.7,72.0,70.0,65.5,59.0,75,57,34,0.00,40.00,16,9,27,0.00
2013-7-20,85.0,72.7,59.0,61.0,56.9,-99.9,91,62,40,0.00,40.00,10,5,14,0.00
2013-7-21,71.0,65.0,60.0,65.0,60.6,55.0,97,86,68,0.00,40.00,6,4,24,1.08
2013-7-22,87.0,72.4,60.0,72.0,65.0,59.0,99,80,56,0.00,40.00,15,6,33,0.03
2013-7-23,75.0,68.8,60.0,67.0,54.3,48.0,81,61,43,0.00,40.00,13,8,23,0.03
2013-7-24,78.0,63.8,47.0,55.0,49.5,45.0,94,63,35,0.00,40.00,6,3,12,0.00
2013-7-25,79.0,66.4,55.0,65.0,58.5,52.0,92,78,52,0.00,40.00,14,7,24,0.03
2013-7-26,77.0,66.5,58.0,65.0,58.4,47.0,98,78,40,0.00,40.00,17,8,30,0.10
2013-7-27,58.0,53.8,48.0,50.0,46.4,43.0,89,76,63,0.00,40.00,12,8,22,0.06
2013-7-28,67.0,57.6,49.0,53.0,49.8,47.0,95,77,56,0.00,40.00,15,9,24,0.01
2013-7-29,79.0,65.4,51.0,57.0,52.7,49.0,93,66,42,0.00,40.00,8,4,14,0.00
2013-7-30,77.0,67.8,60.0,60.0,58.2,56.0,92,73,49,0.00,40.00,7,4,12,0.00
2013-7-31,78.0,66.8,61.0,64.0,61.2,58.0,95,83,54,0.00,40.00,9,4,16,0.16
2013-8-1,79.0,65.4,57.0,60.0,56.1,50.0,96,75,37,0.00,40.00,13,4,24,0.16
2013-8-2,81.0,70.4,56.0,63.0,54.5,50.0,97,61,37,0.00,40.00,12,6,21,0.02
2013-8-3,78.0,64.9,48.0,55.0,49.5,46.0,95,63,33,0.00,40.00,12,5,21,0.00
2013-8-4,75.0,63.3,47.0,56.0,50.3,45.0,93,66,42,0.00,40.00,5,2,12,0.00
2013-8-5,73.0,63.9,54.0,64.0,59.0,52.0,96,85,66,0.00,40.00,9,5,17,0.05
2013-8-6,84.0,72.4,63.0,68.0,63.3,57.0,99,77,41,0.00,40.00,15,6,41,0.05
2013-8-7,80.0,67.3,59.0,65.0,59.7,54.0,98,79,47,0.00,40.00,15,7,41,0.38
2013-8-8,80.0,65.4,47.0,57.0,51.6,46.0,95,66,38,0.00,40.00,7,3,17,0.01
2013-8-9,79.0,70.3,63.0,59.0,55.3,50.0,87,62,36,0.00,40.00,12,6,22,0.00
2013-8-10,75.0,65.6,53.0,55.0,51.9,48.0,91,64,41,0.00,40.00,9,3,16,0.00
2013-8-11,70.0,61.5,54.0,63.0,58.9,52.0,98,91,77,0.00,40.00,6,2,9,0.30
2013-8-12,79.0,66.1,55.0,65.0,57.9,53.0,99,78,41,0.00,40.00,15,4,23,0.01
2013-8-13,74.0,60.5,46.0,55.0,46.2,-99.9,96,65,36,0.00,40.00,10,4,18,0.01
2013-8-14,75.0,58.7,42.0,54.0,44.4,-99.9,94,67,37,0.00,40.00,6,2,14,0.00
2013-8-15,79.0,62.3,55.0,57.0,43.5,-99.9,93,65,33,0.00,40.00,9,4,16,0.00
2013-8-16,82.0,63.3,49.0,56.0,47.4,-99.9,94,65,33,0.00,40.00,6,2,13,0.00
2013-8-17,85.0,68.1,50.0,57.0,51.0,-99.9,94,62,31,0.00,40.00,9,2,14,0.00
2013-8-18,84.0,69.1,53.0,58.0,54.3,51.0,93,64,35,0.00,40.00,10,4,21,0.00
2013-8-19,83.0,68.5,56.0,62.0,51.6,-99.9,95,70,44,0.00,40.00,12,7,21,0.00
2013-8-20,89.0,74.6,63.0,65.0,60.9,-99.9,90,67,42,0.00,40.00,14,7,26,0.00
2013-8-21,92.0,78.9,70.0,73.0,67.1,63.0,94,69,49,0.00,40.00,15,7,25,0.02
2013-8-22,86.0,73.2,65.0,69.0,60.9,52.0,98,71,31,0.00,40.00,7,3,14,0.02
2013-8-23,87.0,73.1,57.0,62.0,56.0,53.0,91,59,33,0.00,40.00,10,5,19,0.00
2013-8-24,86.0,73.0,59.0,68.0,57.5,-99.9,77,61,46,0.00,40.00,10,5,19,0.00
2013-8-25,93.0,82.1,73.0,70.0,67.8,64.0,81,64,43,0.00,40.00,16,10,27,0.00
2013-8-26,93.0,82.6,74.0,75.0,67.7,62.0,81,62,49,0.00,40.00,13,8,25,0.00
2013-8-27,92.0,81.1,75.0,73.0,70.6,69.0,84,72,49,0.00,40.00,12,6,22,0.00
2013-8-28,89.0,82.3,75.0,69.0,67.7,66.0,76,63,49,0.00,40.00,5,4,12,0.00
2013-8-29,92.0,78.5,63.0,71.0,67.8,62.0,97,72,49,0.00,40.00,11,4,18,0.00
2013-8-30,91.0,80.4,73.0,74.0,68.8,62.0,91,69,44,0.00,40.00,11,7,23,0.00
2013-8-31,87.0,73.7,61.0,65.0,61.1,59.0,94,68,41,0.00,40.00,6,4,15,0.00
2013-9-1,87.0,73.9,66.0,69.0,61.9,54.0,96,69,34,0.00,40.00,17,7,26,0.00
2013-9-2,73.0,63.3,53.0,58.0,52.2,47.0,95,69,43,0.00,40.00,10,6,19,0.00
2013-9-3,76.0,57.5,40.0,50.0,46.2,39.0,97,71,39,0.00,40.00,9,4,16,0.00
2013-9-4,86.0,67.0,48.0,64.0,55.4,45.0,94,70,41,0.00,40.00,8,4,16,0.00
2013-9-5,82.0,69.5,60.0,63.0,55.8,50.0,95,65,33,0.00,40.00,8,5,15,0.00
2013-9-6,90.0,73.1,57.0,64.0,56.1,46.0,79,57,39,0.00,40.00,12,6,22,0.00
2013-9-7,95.0,77.9,69.0,69.0,62.6,-99.9,75,62,40,0.00,40.00,9,5,15,0.00
2013-9-8,74.0,68.6,62.0,66.0,59.3,54.0,85,73,57,0.00,40.00,9,6,21,0.00
2013-9-9,92.0,77.4,63.0,72.0,66.5,62.0,96,72,50,0.00,40.00,11,6,20,0.00
2013-9-10,91.0,83.4,75.0,66.0,63.4,60.0,62,52,42,0.00,40.00,13,9,25,0.00
2013-9-11,84.0,74.0,66.0,63.0,59.5,54.0,82,62,39,0.00,40.00,13,6,22,0.00
2013-9-12,73.0,62.8,54.0,55.0,49.3,43.0,90,65,36,0.00,40.00,15,8,29,0.00
2013-9-13,69.0,53.1,38.0,43.0,38.2,33.0,96,63,30,0.00,40.00,6,3,13,0.00
2013-9-14,74.0,57.1,38.0,46.0,39.9,-99.9,93,58,33,0.00,40.00,11,6,21,0.00
2013-9-15,67.0,58.8,54.0,59.0,52.9,47.0,97,82,58,0.00,40.00,8,4,15,0.86
2013-9-16,68.0,54.9,38.0,47.0,40.4,36.0,93,61,36,0.00,40.00,8,4,14,0.01
2013-9-17,68.0,54.7,37.0,57.0,47.3,35.0,95,78,53,0.00,40.00,8,4,15,0.07
2013-9-18,69.0,59.8,58.0,65.0,57.9,56.0,95,93,87,0.00,40.00,4,4,11,0.23
2013-9-19,80.0,73.1,68.0,71.0,67.7,64.0,96,83,68,0.00,40.00,12,6,23,0.06
2013-9-20,68.0,62.9,55.0,67.0,58.5,49.0,98,86,61,0.00,40.00,12,7,22,0.07
2013-9-21,63.0,52.6,44.0,49.0,44.0,-99.9,95,76,49,0.00,40.00,11,6,20,0.01
2013-9-22,67.0,51.7,35.0,45.0,41.3,33.0,96,71,44,0.00,40.00,6,3,13,0.00
2013-9-23,71.0,56.4,44.0,51.0,46.9,42.0,93,73,47,0.00,40.00,8,5,20,0.00
2013-9-24,74.0,58.6,44.0,52.0,48.1,43.0,98,72,41,0.00,40.00,7,3,14,0.00
2013-9-25,72.0,57.2,43.0,54.0,48.6,42.0,98,77,45,0.00,40.00,6,3,13,0.00
2013-9-26,77.0,60.8,45.0,56.0,50.8,44.0,97,73,41,0.00,40.00,7,4,15,0.00
2013-9-27,82.0,67.2,54.0,54.0,50.6,47.0,83,58,32,0.00,40.00,11,5,20,0.00
2013-9-28,78.0,63.3,52.0,65.0,52.4,-99.9,97,71,47,0.00,40.00,16,8,31,0.45
2013-9-29,72.0,56.4,40.0,51.0,45.4,39.0,98,72,34,0.00,40.00,10,5,18,0.06
2013-9-30,74.0,60.2,48.0,49.0,45.2,42.0,89,61,32,0.00,40.00,15,7,27,0.00
2013-10-1,75.0,61.5,51.0,47.0,46.4,45.0,83,60,37,0.00,40.00,10,4,18,0.00
2013-10-2,77.0,58.3,38.0,48.0,40.2,34.0,95,59,21,0.00,40.00,7,3,14,0.00
2013-10-3,71.0,61.8,54.0,62.0,55.5,44.0,96,81,55,0.00,40.00,8,4,24,0.23
2013-10-4,59.0,57.8,56.0,58.0,56.6,55.0,98,96,93,0.00,40.00,9,5,16,0.46
2013-10-5,68.0,61.8,57.0,67.0,60.5,49.0,98,96,85,0.00,40.00,9,6,27,1.36
2013-10-6,57.0,49.3,38.0,49.0,40.9,35.0,97,75,46,0.00,40.00,7,4,12,0.41
2013-10-7,66.0,51.8,42.0,47.0,42.8,39.0,96,75,39,0.00,40.00,14,7,25,0.05
2013-10-8,76.0,59.0,38.0,47.0,42.8,36.0,95,61,30,0.00,40.00,14,6,26,0.00
2013-10-9,74.0,60.8,47.0,49.0,46.5,44.0,92,62,39,0.00,40.00,11,4,21,0.00
2013-10-10,74.0,59.8,42.0,50.0,45.9,40.0,93,64,36,0.00,40.00,8,4,15,0.00
2013-10-11,74.0,61.7,51.0,57.0,52.3,48.0,92,73,54,0.00,40.00,9,6,22,0.00
2013-10-12,66.0,59.9,46.0,56.0,45.2,-99.9,81,61,40,0.00,40.00,15,8,26,0.00
2013-10-13,62.0,47.5,36.0,39.0,34.8,31.0,93,66,31,0.00,40.00,14,5,20,0.00
2013-10-14,61.0,45.9,29.0,42.0,35.6,27.0,95,71,45,0.00,40.00,8,4,20,0.00
2013-10-15,58.0,51.2,47.0,56.0,47.0,40.0,96,86,69,0.00,40.00,11,7,22,0.55
2013-10-16,50.0,47.6,44.0,47.0,44.6,37.0,97,90,78,0.00,40.00,10,6,16,0.01
2013-10-17,55.0,43.1,32.0,40.0,35.7,30.0,97,78,47,0.00,40.00,8,4,17,0.00
2013-10-18,49.0,43.0,36.0,44.0,38.7,34.0,92,84,64,0.00,40.00,15,7,23,0.02
2013-10-19,51.0,38.5,30.0,40.0,32.1,-99.9,95,82,42,0.00,40.00,17,5,31,0.09
2013-10-20,46.0,38.4,29.0,43.0,36.7,28.0,97,94,87,0.00,40.00,14,4,28,0.10
2013-10-21,42.0,36.5,33.0,37.0,25.8,18.0,87,66,45,0.00,40.00,16,10,28,0.01
2013-10-22,48.0,34.9,25.0,28.0,24.1,21.0,88,66,42,0.00,40.00,10,6,19,0.00
2013-10-23,40.0,31.5,22.0,30.0,24.8,20.0,90,77,53,0.00,40.00,11,5,26,0.00
2013-10-24,43.0,36.2,31.0,26.0,23.7,22.0,76,61,44,0.00,40.00,13,8,24,0.00
2013-10-25,51.0,40.6,28.0,29.0,25.9,24.0,84,59,39,0.00,40.00,18,10,35,0.00
2013-10-26,51.0,45.8,40.0,36.0,27.9,-99.9,72,52,39,0.00,40.00,19,12,35,0.00
2013-10-27,57.0,39.9,26.0,30.0,26.7,23.0,89,63,32,0.00,40.00,13,6,26,0.00
2013-10-28,42.0,38.3,34.0,31.0,24.4,-99.9,79,60,49,0.00,40.00,10,6,20,0.00
2013-10-29,49.0,38.8,33.0,38.0,30.1,23.0,93,71,58,0.00,40.00,6,4,12,0.00
2013-10-30,54.0,48.3,38.0,52.0,45.8,37.0,97,91,84,0.00,40.00,6,4,13,0.00
2013-10-31,55.0,50.6,42.0,55.0,49.9,39.0,100,98,92,0.00,40.00,12,6,21,0.05
2013-11-1,46.0,41.9,37.0,41.0,38.5,34.0,95,88,76,0.00,40.00,11,8,21,0.03
2013-11-2,45.0,37.5,28.0,35.0,31.1,-99.9,93,81,64,0.00,40.00,11,6,15,0.01
2013-11-3,51.0,35.9,22.0,34.0,28.1,20.0,95,75,43,0.00,40.00,10,4,21,0.00
2013-11-4,50.0,46.0,42.0,45.0,37.8,33.0,96,74,59,0.00,40.00,12,8,23,0.04
2013-11-5,50.0,42.7,30.0,45.0,40.3,29.0,98,92,61,0.00,40.00,6,3,12,1.00
2013-11-6,44.0,37.9,30.0,43.0,30.4,19.0,98,77,42,0.00,40.00,16,10,25,0.92
2013-11-7,38.0,30.3,22.0,28.0,24.8,20.0,93,81,64,0.00,40.00,10,5,20,0.01
2013-11-8,43.0,32.4,19.0,31.0,24.9,16.0,93,76,56,0.00,40.00,10,5,20,0.04
2013-11-9,47.0,43.7,39.0,38.0,33.1,24.0,85,67,52,0.00,40.00,19,13,36,0.05
2013-11-10,46.0,41.0,38.0,28.0,26.1,24.0,64,55,42,0.00,40.00,16,9,25,0.00
2013-11-11,42.0,29.7,19.0,33.0,19.2,8.0,94,66,45,0.00,40.00,17,10,26,0.05
2013-11-12,28.0,19.8,13.0,11.0,7.5,5.0,72,60,39,0.00,40.00,11,7,19,0.03
2013-11-13,47.0,29.1,13.0,25.0,13.6,8.0,81,56,35,0.00,40.00,18,10,30,0.00
2013-11-14,51.0,40.4,33.0,28.0,22.6,15.0,65,49,38,0.00,40.00,12,8,19,0.00
2013-11-15,56.0,39.5,24.0,35.0,29.6,22.0,91,70,43,0.00,40.00,7,4,15,0.00
2013-11-16,58.0,45.4,37.0,56.0,41.7,-99.9,98,90,75,0.00,40.00,10,6,19,0.72
2013-11-17,54.0,46.8,38.0,52.0,43.8,28.0,100,90,68,0.00,40.00,20,11,41,0.25
2013-11-18,37.0,30.9,22.0,28.0,20.9,17.0,83,66,58,0.00,40.00,21,14,36,0.01
2013-11-19,40.0,27.8,15.0,25.0,18.8,12.0,90,71,46,0.00,40.00,8,5,17,0.00
2013-11-20,39.0,35.8,33.0,33.0,27.6,25.0,96,73,58,0.00,40.00,9,7,21,0.07
2013-11-21,40.0,36.7,32.0,37.0,34.8,28.0,98,93,87,0.00,40.00,12,5,17,0.07
2013-11-22,34.0,28.0,22.0,28.0,17.9,10.0,91,68,39,0.00,40.00,13,9,24,0.02
2013-11-23,23.0,15.0,4.0,13.0,1.6,-3.0,74,55,38,0.00,40.00,17,12,31,0.01
2013-11-24,26.0,14.5,-1.0,2.0,-1.7,-6.0,78,52,27,0.00,40.00,17,8,28,0.00
2013-11-25,35.0,29.6,24.0,25.0,16.6,1.0,76,59,33,0.00,40.00,16,11,28,0.00
2013-11-26,35.0,24.2,10.0,22.0,10.7,0.0,77,56,40,0.00,40.00,17,10,29,0.00
2013-11-27,28.0,17.3,7.0,10.0,5.2,-1.0,78,59,40,0.00,40.00,9,6,17,0.00
2013-11-28,30.0,23.9,17.0,13.0,10.4,8.0,79,56,44,0.00,40.00,12,5,21,0.00
2013-11-29,32.0,18.9,3.0,17.0,10.1,-2.0,84,69,46,0.00,40.00,9,4,16,0.00
2013-11-30,45.0,34.4,26.0,27.0,21.7,-99.9,74,62,47,0.00,40.00,11,5,19,0.00
2013-12-1,39.0,29.3,22.0,25.0,22.2,19.0,91,76,50,0.00,40.00,6,2,10,0.00
2013-12-2,38.0,29.9,18.0,32.0,25.2,15.0,97,83,70,0.00,40.00,9,5,22,0.19
2013-12-3,34.0,33.0,32.0,33.0,31.9,31.0,98,96,94,0.00,40.00,9,7,18,0.34
2013-12-4,38.0,34.1,31.0,38.0,33.5,25.0,100,97,81,0.00,40.00,16,7,29,0.06
2013-12-5,31.0,16.9,7.0,25.0,6.3,-1.0,79,63,48,0.00,40.00,19,14,36,0.02
2013-12-6,12.0,5.0,1.0,-1.0,-3.8,-7.0,77,67,49,0.00,40.00,11,7,21,0.00
2013-12-7,11.0,1.1,-5.0,-7.0,-9.7,-99.9,73,63,40,0.00,40.00,8,5,15,0.00
2013-12-8,12.0,7.9,-2.0,7.0,1.7,-8.0,84,75,62,0.00,40.00,7,4,12,0.02
2013-12-9,14.0,5.6,-8.0,6.0,-2.5,-15.0,83,69,52,0.00,40.00,18,8,31,0.02
2013-12-10,14.0,6.5,-6.0,6.0,-3.7,-12.0,75,63,48,0.00,40.00,18,9,29,0.00
2013-12-11,11.0,0.7,-10.0,6.0,-9.3,-18.0,83,63,40,0.00,40.00,14,8,22,0.00
2013-12-12,21.0,9.4,-10.0,9.0,-0.9,-17.0,70,62,52,0.00,40.00,11,6,19,0.00
2013-12-13,21.0,16.7,13.0,11.0,7.1,1.0,78,65,55,0.00,40.00,10,6,17,0.00
2013-12-14,22.0,16.7,13.0,15.0,9.5,-99.9,83,76,65,0.00,40.00,10,6,18,0.01
2013-12-15,14.0,5.0,-5.0,8.0,-6.6,-16.0,75,59,39,0.00,40.00,14,10,24,0.01
2013-12-16,14.0,3.7,-9.0,11.0,-3.8,-16.0,86,70,54,0.00,40.00,9,3,17,0.13
2013-12-17,33.0,23.6,14.0,24.0,16.6,4.0,89,75,55,0.00,40.00,17,10,30,0.02
2013-12-18,37.0,18.9,0.0,23.0,9.2,-5.0,83,67,44,0.00,40.00,13,5,22,0.01
2013-12-19,27.0,22.3,14.0,21.0,17.3,11.0,92,81,71,0.00,40.00,10,6,20,0.00
2013-12-20,22.0,20.4,18.0,20.0,17.4,14.0,91,88,83,0.00,40.00,10,5,19,0.12
2013-12-21,26.0,23.4,21.0,24.0,19.6,-99.9,94,88,79,0.00,40.00,9,4,15,0.01
2013-12-22,28.0,23.1,19.0,20.0,19.0,17.0,91,84,71,0.00,40.00,7,4,15,0.19
2013-12-23,21.0,8.3,-4.0,19.0,3.0,-11.0,90,78,71,0.00,40.00,10,7,17,0.04
2013-12-24,16.0,1.7,-20.0,5.0,-5.9,-28.0,82,70,60,0.00,40.00,7,4,16,0.04
2013-12-25,21.0,15.2,8.0,18.0,10.3,3.0,88,81,74,0.00,40.00,11,6,20,0.13
2013-12-26,23.0,17.2,11.0,17.0,11.4,6.0,89,78,65,0.00,40.00,10,3,19,0.01
2013-12-27,38.0,22.0,1.0,29.0,15.3,-4.0,87,76,61,0.00,40.00,13,6,20,0.01
2013-12-28,47.0,33.8,20.0,31.0,24.8,-99.9,95,74,49,0.00,40.00,8,6,16,0.01
2013-12-29,40.0,14.7,-9.0,30.0,5.4,-21.0,91,66,53,0.00,40.00,19,13,30,0.00
2013-12-30,3.0,-7.4,-22.0,-7.0,-18.1,-30.0,75,60,34,0.00,40.00,6,3,10,0.01
2013-12-31,5.0,0.3,-6.0,-6.0,-8.8,-19.0,75,65,53,0.00,40.00,9,5,15,0.01
2014-1-1,9.0,0.8,-12.0,-6.0,-11.3,-19.0,70,56,40,0.00,40.00,7,4,13,0.00
2014-1-2,12.0,3.2,-12.0,-3.0,-8.5,-22.0,73,58,39,0.00,40.00,10,5,22,0.00